Waarnemingen

Advertentie
Mijn weer
UFS TW Ems, Duitsland (10004): temperatuur & dauwpunt: 18.02.2017 16:00:00 - 24.02.2017 16:00:00 (CET)UFS TW Ems, Duitsland (10004): windsnelheid & windstoten: 18.02.2017 16:00:00 - 24.02.2017 16:00:00 (CET)UFS TW Ems, Duitsland (10004): windrichting: 18.02.2017 16:00:00 - 24.02.2017 16:00:00 (CET)UFS TW Ems, Duitsland (10004): luchtdruk: 18.02.2017 16:00:00 - 24.02.2017 16:00:00 (CET)UFS TW Ems, Duitsland (10004): zicht: 18.02.2017 16:00:00 - 24.02.2017 16:00:00 (CET)UFS TW Ems, Duitsland (10004): Zonneschijnduur: 18.02.2017 16:00:00 - 24.02.2017 16:00:00 (CET)
Datum & Tijd tt [°C] td [°C] ff [km/u] ff [kn] fx [km/u] fx [kn] dd ppp [hPa] vv [km] sd [min]
24.02.2017 16:00:00 4,3 0,9 32 18 - - WNW 1012,8 10 60
24.02.2017 15:00:00 4,8 1,5 32 18 47 25 NW 1012,0 10 60
24.02.2017 14:00:00 4,8 0,0 29 16 47 25 WNW 1011,4 10 54
24.02.2017 13:00:00 4,4 1,5 32 18 - - NW 1010,5 10 60
24.02.2017 12:00:00 5,0 1,3 25 14 - - WNW 1009,5 10 42
24.02.2017 11:00:00 4,7 1,0 25 14 54 29 WNW 1008,6 10 36
24.02.2017 10:00:00 4,6 0,8 22 12 - - WNW 1007,5 10 60
24.02.2017 09:00:00 4,1 0,2 32 18 47 25 NNW 1006,3 10 42
24.02.2017 08:00:00 4,7 -0,5 32 18 54 29 NW 1004,9 10 0
24.02.2017 07:00:00 4,5 -0,3 40 21 - - NNW 1003,4 10 0
24.02.2017 06:00:00 4,2 0,6 43 23 68 37 NNW 1001,5 10 0
24.02.2017 05:00:00 4,5 -0,4 54 29 76 41 NW 999,2 10 0
24.02.2017 04:00:00 4,7 0,7 54 29 - - NW 996,9 10 0
24.02.2017 03:00:00 4,8 0,7 54 29 76 41 NW 995,3 10 0
24.02.2017 02:00:00 4,9 1,0 58 31 68 37 NW 993,6 10 0
24.02.2017 01:00:00 5,1 0,6 54 29 - - NW 990,9 10 0
24.02.2017 00:00:00 4,6 1,7 54 29 79 43 NNW 988,2 10 0
23.02.2017 23:00:00 4,2 1,7 68 37 86 47 NNW 985,2 10 0
23.02.2017 22:00:00 3,9 2,3 58 31 - - NNW 982,5 10 0
23.02.2017 21:00:00 6,0 5,3 40 21 47 25 W 979,7 10 0
23.02.2017 20:00:00 5,3 4,7 36 19 - - W 978,2 10 0
23.02.2017 19:00:00 5,0 4,2 32 18 - - WZW 977,4 10 0
23.02.2017 18:00:00 5,4 4,2 43 23 58 31 ZW 977,5 9 0
23.02.2017 17:00:00 5,8 4,7 36 19 65 35 ZW 978,6 5 0
23.02.2017 16:00:00 6,4 4,9 50 27 - - ZW 978,9 3,5 0
23.02.2017 15:00:00 6,7 5,4 58 31 76 41 ZW 979,7 4,5 0
23.02.2017 14:00:00 6,7 5,9 58 31 72 39 ZZW 980,8 9 0
23.02.2017 13:00:00 6,5 6,0 54 29 - - ZZW 983,0 2,8 0
23.02.2017 12:00:00 6,4 6,0 43 23 54 29 ZZW 986,1 9 0
23.02.2017 11:00:00 3,6 2,9 32 18 - - OZO 989,1 7 0
23.02.2017 10:00:00 3,2 2,1 25 14 - - ZO 991,4 9 0
23.02.2017 09:00:00 - - - - - - - - - -
23.02.2017 08:00:00 4,5 2,9 22 12 - - ZZW 995,1 9 0
23.02.2017 07:00:00 5,2 3,9 29 16 - - ZW 996,2 7 0
23.02.2017 06:00:00 5,8 4,5 25 14 - - ZW 997,0 10 0
23.02.2017 05:00:00 5,7 4,5 30 16 - - WZW 997,4 10 0
23.02.2017 04:00:00 5,8 4,5 29 16 - - WZW 998,2 10 0
23.02.2017 03:00:00 6,1 4,4 32 18 58 31 W 998,7 10 0
23.02.2017 02:00:00 6,2 4,2 43 23 65 35 W 998,5 10 0
23.02.2017 01:00:00 - - - - - - - - - -
23.02.2017 00:00:00 6,5 4,1 47 25 61 33 W 998,1 10 0
22.02.2017 23:00:00 6,5 4,2 47 25 61 33 W 998,0 10 0
22.02.2017 22:00:00 6,5 4,1 47 25 - - WZW 998,0 10 0
22.02.2017 21:00:00 6,5 4,0 47 25 65 35 WZW 997,9 10 0
22.02.2017 20:00:00 - - - - - - - - - -
22.02.2017 19:00:00 6,6 3,8 50 27 - - WZW 997,3 10 0
22.02.2017 18:00:00 6,6 4,1 54 29 68 37 WZW 997,0 10 18
22.02.2017 17:00:00 6,7 4,2 54 29 72 39 WZW 997,0 10 36
22.02.2017 16:00:00 6,5 4,2 50 27 - - WZW 997,3 10 0
22.02.2017 15:00:00 6,4 3,7 47 25 58 31 WZW 997,6 10 0
22.02.2017 14:00:00 - - - - - - - - - -
22.02.2017 13:00:00 6,3 3,8 43 23 - - WZW 998,1 10 12
22.02.2017 12:00:00 6,4 4,6 43 23 50 27 WZW 998,4 10 54
22.02.2017 11:00:00 6,3 3,8 36 19 50 27 WZW 998,3 10 60
22.02.2017 10:00:00 6,7 4,3 43 23 - - W 997,9 9 60
22.02.2017 09:00:00 6,5 5,5 40 21 58 31 WZW 997,6 10 6
22.02.2017 08:00:00 7,1 4,9 43 23 68 37 WZW 996,3 10 0
22.02.2017 07:00:00 7,5 7,3 58 31 - - W 996,0 1,9 0
22.02.2017 06:00:00 7,5 6,6 54 29 68 37 WZW 995,8 8 0
22.02.2017 05:00:00 7,2 6,4 58 31 76 41 WZW 996,5 3,9 0
22.02.2017 04:00:00 7,6 6,7 61 33 - - WZW 996,3 2,9 0
22.02.2017 03:00:00 7,6 6,8 58 31 76 41 ZW 997,2 3,4 0
22.02.2017 02:00:00 7,4 6,8 54 29 72 39 WZW 998,1 4,6 0
22.02.2017 01:00:00 7,2 7,0 50 27 - - ZW 999,5 3,8 0
22.02.2017 00:00:00 6,3 6,1 47 25 61 33 ZZW 1001,0 2,3 0
21.02.2017 23:00:00 6,3 5,7 47 25 58 31 ZZW 1002,6 5 0
21.02.2017 22:00:00 5,8 4,8 43 23 - - ZZW 1004,7 10 0
21.02.2017 21:00:00 5,3 4,7 36 19 - - ZZW 1006,3 8 0
21.02.2017 20:00:00 5,3 4,7 29 16 - - ZZW 1008,0 9 0
21.02.2017 19:00:00 5,4 4,7 25 14 - - ZZW 1009,4 10 0
21.02.2017 18:00:00 - - - - - - - - - -
21.02.2017 17:00:00 5,9 5,0 29 16 - - ZW 1010,7 10 18
21.02.2017 16:00:00 5,8 5,0 25 14 - - WZW 1010,9 9 60
21.02.2017 15:00:00 6,0 5,0 29 16 - - WZW 1011,0 9 60
21.02.2017 14:00:00 6,1 5,0 32 18 - - WZW 1011,0 1,3 60
21.02.2017 13:00:00 6,0 4,9 29 16 - - WZW 1011,3 0,4 60
21.02.2017 12:00:00 5,9 4,9 29 16 - - W 1011,0 1,0 60
21.02.2017 11:00:00 6,2 5,1 29 16 - - W 1010,9 3,3 60
21.02.2017 10:00:00 6,3 5,0 32 18 - - W 1010,1 9 54
21.02.2017 09:00:00 6,3 5,1 32 18 - - W 1009,6 9 0
21.02.2017 08:00:00 6,3 5,2 32 18 - - W 1009,0 9 0
21.02.2017 07:00:00 6,3 5,3 32 18 - - W 1008,4 9 0
21.02.2017 06:00:00 6,3 5,3 29 16 - - W 1008,1 9 0
21.02.2017 05:00:00 6,5 5,4 36 19 - - W 1007,5 10 0
21.02.2017 04:00:00 6,6 5,3 36 19 - - W 1007,5 10 0
21.02.2017 03:00:00 6,5 5,3 32 18 - - W 1007,5 10 0
21.02.2017 02:00:00 6,6 5,8 36 19 - - W 1007,7 10 0
21.02.2017 01:00:00 6,5 6,0 29 16 - - W 1008,4 8 0
21.02.2017 00:00:00 6,6 6,3 32 18 - - WZW 1008,5 7 0
20.02.2017 23:00:00 6,7 6,1 29 16 - - W 1008,3 7 0
20.02.2017 22:00:00 7,0 6,4 32 18 - - W 1008,3 8 0
20.02.2017 21:00:00 7,0 6,5 36 19 50 27 W 1007,4 7 0
20.02.2017 20:00:00 7,4 7,2 43 23 58 31 W 1007,1 6 0
20.02.2017 19:00:00 8,0 7,0 47 25 - - W 1006,6 9 0
20.02.2017 18:00:00 7,7 6,9 47 25 58 31 W 1005,7 9 0
20.02.2017 17:00:00 8,0 7,2 50 27 61 33 WZW 1005,8 5 0
20.02.2017 16:00:00 7,4 6,7 47 25 - - WZW 1006,2 10 0
20.02.2017 15:00:00 - - - - - - - - - -
20.02.2017 14:00:00 6,7 6,6 43 23 54 29 WZW 1006,9 2,7 0
20.02.2017 13:00:00 7,0 6,7 43 23 - - WZW 1007,4 6 12
20.02.2017 12:00:00 7,0 6,7 43 23 50 27 WZW 1008,0 5 0
20.02.2017 11:00:00 6,8 6,6 43 23 54 29 WZW 1008,7 5 0
20.02.2017 10:00:00 6,6 6,6 40 21 - - WZW 1009,2 4,0 0
20.02.2017 09:00:00 6,6 6,5 40 21 47 25 ZW 1009,6 4,1 0
20.02.2017 08:00:00 6,3 6,2 40 21 47 25 ZW 1009,6 4,0 0
20.02.2017 07:00:00 6,4 5,9 40 21 - - ZW 1010,0 5 0
20.02.2017 06:00:00 6,6 6,1 36 19 47 25 ZW 1011,0 7 0
20.02.2017 05:00:00 - - - - - - - - - -
20.02.2017 04:00:00 - - - - - - - - - -
20.02.2017 03:00:00 6,1 5,5 32 18 - - ZW 1013,4 10 0
20.02.2017 02:00:00 5,8 5,8 32 18 - - ZW 1014,5 10 0
20.02.2017 01:00:00 5,7 5,6 29 16 - - ZZW 1015,3 10 0
20.02.2017 00:00:00 5,6 5,5 25 14 - - ZZW 1016,0 10 0
19.02.2017 23:00:00 5,3 5,3 22 12 - - ZW 1016,3 9 0
19.02.2017 22:00:00 5,0 5,0 22 12 - - ZW 1016,6 0,3 0
19.02.2017 21:00:00 5,0 4,8 22 12 - - W 1017,2 0,3 0
19.02.2017 20:00:00 6,3 5,7 25 14 - - W 1017,0 10 0
19.02.2017 19:00:00 6,1 5,6 25 14 - - W 1016,9 10 0
19.02.2017 18:00:00 5,9 5,6 25 14 - - W 1016,2 10 0
19.02.2017 17:00:00 5,9 5,6 29 16 - - W 1015,9 8 6
19.02.2017 16:00:00 6,0 5,6 29 16 - - W 1016,1 9 48
19.02.2017 15:00:00 6,1 5,4 22 12 - - W 1015,9 10 30
19.02.2017 14:00:00 6,1 5,5 25 14 - - W 1015,8 8 42
19.02.2017 13:00:00 6,2 5,5 29 16 - - W 1016,0 1,3 42
19.02.2017 12:00:00 6,0 5,5 22 12 - - WZW 1016,3 0,9 24
19.02.2017 11:00:00 6,1 5,5 29 16 - - WZW 1016,0 4,7 0
19.02.2017 10:00:00 6,1 5,4 32 18 - - WZW 1016,0 5 0
19.02.2017 09:00:00 6,1 5,5 36 19 47 25 WZW 1015,5 4,8 0
19.02.2017 08:00:00 6,2 5,5 32 18 47 25 ZW 1015,4 4,1 0
19.02.2017 07:00:00 6,1 5,6 36 19 - - ZW 1015,2 3,5 0
19.02.2017 06:00:00 6,0 5,5 32 18 - - ZW 1015,6 3,3 0
19.02.2017 05:00:00 5,8 5,3 32 18 - - ZW 1015,8 4,8 0
19.02.2017 04:00:00 5,7 5,7 36 19 - - ZW 1016,9 3,5 0
19.02.2017 03:00:00 5,1 5,0 43 23 50 27 ZW 1017,5 1,5 0
19.02.2017 02:00:00 5,3 5,2 36 19 47 25 ZZW 1018,3 1,3 0
19.02.2017 01:00:00 5,1 4,8 40 21 - - ZW 1019,2 2,8 0
19.02.2017 00:00:00 5,1 4,7 40 21 54 29 ZW 1020,1 4,1 0
18.02.2017 23:00:00 4,5 4,5 43 23 54 29 ZW 1020,0 6 0
18.02.2017 22:00:00 4,2 4,2 43 23 - - ZW 1020,9 3,5 0
18.02.2017 21:00:00 4,5 4,4 47 25 58 31 ZW 1021,1 3,0 0
18.02.2017 20:00:00 4,5 4,5 36 19 50 27 ZW 1022,2 0,9 0
18.02.2017 19:00:00 4,3 4,2 40 21 - - ZZW 1022,5 0,9 0
18.02.2017 18:00:00 4,0 3,9 40 21 47 25 ZW 1022,6 5 0
18.02.2017 17:00:00 3,9 3,5 36 19 - - ZZW 1022,9 2,2 0
18.02.2017 16:00:00 3,5 3,4 32 18 - - ZZW 1023,6 0,7 0

tt = temperatuur
td = dauwpunt
ff = windsnelheid
fx = windstoten
dd = windrichting
ppp = luchtdruk
vv = zicht
sd = Zonneschijnduur

Weerstations in de omgeving